| time (UTC) | temp C | wind direction | speed KPH | gust KPH | rain 1hr cm | rain 24hr cm | rain mn cm | humidity % | barometer mb |
| 20260905091511 | 14 | 309 | 0.0 | 0.0 | 0.00 | 0.03 | 0.00 | 88 | 1008.5 |
| 20260905090010 | 14 | 311 | 0.0 | 17.7 | 0.00 | 0.03 | 0.00 | 88 | 1008.4 |
| 20260905084506 | 14 | 355 | 0.0 | 12.9 | 0.00 | 0.03 | 0.00 | 88 | 1008.3 |
| 20260905083006 | 14 | 314 | 4.8 | 17.7 | 0.00 | 0.03 | 0.00 | 88 | 1008.2 |
| 20260905081504 | 14 | 317 | 1.6 | 17.7 | 0.00 | 0.03 | 0.00 | 89 | 1008.3 |
| 20260905080003 | 14 | 319 | 0.0 | 0.0 | 0.00 | 0.03 | 0.00 | 88 | 1008.4 |
| 20260905074503 | 14 | 348 | 0.0 | 0.0 | 0.00 | 0.03 | 0.00 | 88 | 1008.5 |
| 20260905073101 | 15 | 28 | 0.0 | 0.0 | 0.00 | 0.03 | 0.00 | 88 | 1008.5 |
| 20260905071603 | 15 | 347 | 0.0 | 0.0 | 0.00 | 0.03 | 0.00 | 88 | 1008.6 |
| 20260905070059 | 15 | 315 | 0.0 | 0.0 | 0.00 | 0.03 | 0.00 | 88 | 1008.7 |
| 20260905064612 | 15 | 335 | 0.0 | 0.0 | 0.00 | 0.03 | 0.00 | 88 | 1008.7 |
| 20260905063054 | 15 | 335 | 0.0 | 0.0 | 0.00 | 0.03 | 0.00 | 88 | 1008.9 |
| 20260905061552 | 15 | 339 | 0.0 | 0.0 | 0.00 | 0.03 | 0.00 | 88 | 1009.0 |
| 20260905060050 | 16 | 336 | 0.0 | 0.0 | 0.00 | 0.03 | 0.00 | 88 | 1009.0 |
| 20260905054632 | 16 | 321 | 0.0 | 0.0 | 0.00 | 0.03 | 0.00 | 87 | 1009.1 |
| 20260905053046 | 16 | 321 | 0.0 | 0.0 | 0.00 | 0.03 | 0.00 | 86 | 1009.1 |
| 20260905051542 | 17 | 296 | 0.0 | 0.0 | 0.00 | 0.03 | 0.00 | 86 | 1009.2 |
| 20260905050042 | 17 | 346 | 3.2 | 12.9 | 0.00 | 0.03 | 0.00 | 86 | 1009.2 |
| 20260905044539 | 17 | 307 | 0.0 | 9.7 | 0.00 | 0.03 | 0.00 | 85 | 1009.3 |
| 20260905043040 | 17 | 338 | 4.8 | 11.3 | 0.00 | 0.03 | 0.00 | 85 | 1009.2 |
| 20260905041539 | 17 | 360 | 1.6 | 16.1 | 0.00 | 0.03 | 0.00 | 86 | 1009.2 |
| 20260905040038 | 17 | 309 | 3.2 | 14.5 | 0.00 | 0.03 | 0.00 | 86 | 1009.3 |
| 20260905034536 | 17 | 327 | 0.0 | 0.0 | 0.00 | 0.03 | 0.03 | 87 | 1009.3 |
| 20260905033039 | 17 | 11 | 0.0 | 0.0 | 0.00 | 0.03 | 0.03 | 87 | 1009.3 |
| 20260905031538 | 16 | 17 | 0.0 | 0.0 | 0.00 | 0.03 | 0.03 | 87 | 1009.2 |
| 20260905030037 | 17 | 302 | 0.0 | 0.0 | 0.00 | 0.03 | 0.03 | 87 | 1009.5 |
| 20260905024538 | 17 | 321 | 0.0 | 0.0 | 0.00 | 0.03 | 0.03 | 87 | 1009.4 |
| 20260905023034 | 17 | 350 | 0.0 | 0.0 | 0.00 | 0.03 | 0.03 | 87 | 1009.6 |
| 20260905021534 | 17 | 36 | 0.0 | 0.0 | 0.00 | 0.03 | 0.03 | 87 | 1009.8 |
| 20260905020037 | 17 | 36 | 0.0 | 0.0 | 0.00 | 0.03 | 0.03 | 87 | 1009.8 |
| 20260905014532 | 17 | 36 | 0.0 | 0.0 | 0.00 | 0.03 | 0.03 | 87 | 1009.9 |
| 20260905013032 | 17 | 36 | 0.0 | 0.0 | 0.00 | 0.03 | 0.03 | 87 | 1009.9 |
| 20260905011530 | 17 | 138 | 0.0 | 0.0 | 0.00 | 0.03 | 0.03 | 86 | 1009.9 |
| 20260905010037 | 17 | 138 | 0.0 | 0.0 | 0.00 | 0.03 | 0.03 | 86 | 1009.7 |
| 20260905004529 | 17 | 355 | 0.0 | 0.0 | 0.00 | 0.03 | 0.03 | 86 | 1009.6 |
| 20260905003028 | 17 | 355 | 0.0 | 0.0 | 0.00 | 0.03 | 0.03 | 85 | 1009.6 |
| 20260905001529 | 17 | 36 | 0.0 | 0.0 | 0.00 | 0.03 | 0.03 | 85 | 1009.4 |
| 20260905000034 | 17 | 323 | 0.0 | 0.0 | 0.00 | 0.03 | 0.03 | 84 | 1009.3 |
| 20260904234528 | 18 | 322 | 0.0 | 0.0 | 0.00 | 0.03 | 0.03 | 83 | 1009.1 |
| 20260904233028 | 18 | 322 | 0.0 | 0.0 | 0.00 | 0.03 | 0.03 | 81 | 1009.1 |
| 20260904231527 | 19 | 19 | 0.0 | 0.0 | 0.00 | 0.03 | 0.03 | 80 | 1009.1 |
| 20260904230031 | 19 | 341 | 0.0 | 0.0 | 0.00 | 0.03 | 0.03 | 78 | 1009.0 |
| 20260904224526 | 20 | 336 | 0.0 | 0.0 | 0.00 | 0.03 | 0.03 | 77 | 1009.0 |
| 20260904223026 | 20 | 330 | 0.0 | 0.0 | 0.00 | 0.03 | 0.03 | 76 | 1009.0 |
| 20260904221528 | 21 | 318 | 0.0 | 0.0 | 0.00 | 0.03 | 0.03 | 74 | 1008.8 |
| 20260904220024 | 21 | 340 | 0.0 | 0.0 | 0.00 | 0.03 | 0.03 | 74 | 1008.8 |
| 20260904214523 | 21 | 32 | 0.0 | 0.0 | 0.00 | 0.03 | 0.03 | 74 | 1008.8 |
| 20260904213023 | 21 | 336 | 3.2 | 12.9 | 0.00 | 0.03 | 0.03 | 73 | 1009.1 |
| 20260904211522 | 21 | 11 | 4.8 | 19.3 | 0.00 | 0.03 | 0.03 | 72 | 1009.0 |
| 20260904210024 | 21 | 296 | 4.8 | 17.7 | 0.00 | 0.03 | 0.03 | 73 | 1009.1 |
| 20260904204520 | 21 | 360 | 1.6 | 11.3 | 0.00 | 0.03 | 0.03 | 73 | 1008.9 |
| 20260904203022 | 21 | 331 | 4.8 | 14.5 | 0.00 | 0.03 | 0.03 | 73 | 1009.0 |
| 20260904201519 | 22 | 310 | 3.2 | 12.9 | 0.00 | 0.03 | 0.03 | 71 | 1009.0 |
| 20260904200020 | 22 | 21 | 3.2 | 11.3 | 0.00 | 0.03 | 0.03 | 72 | 1009.1 |
| 20260904194519 | 22 | 314 | 0.0 | 16.1 | 0.00 | 0.03 | 0.03 | 69 | 1009.2 |
| 20260904193016 | 23 | 340 | 3.2 | 19.3 | 0.00 | 0.03 | 0.03 | 66 | 1009.1 |
| 20260904191516 | 23 | 275 | 3.2 | 17.7 | 0.00 | 0.03 | 0.03 | 67 | 1009.1 |
| 20260904190016 | 23 | 301 | 3.2 | 17.7 | 0.00 | 0.03 | 0.03 | 66 | 1009.1 |
| 20260904184514 | 22 | 215 | 1.6 | 16.1 | 0.00 | 0.03 | 0.03 | 69 | 1009.3 |
| 20260904183013 | 22 | 250 | 1.6 | 11.3 | 0.00 | 0.03 | 0.03 | 66 | 1009.5 |
| 20260904181513 | 22 | 315 | 4.8 | 14.5 | 0.00 | 0.03 | 0.03 | 70 | 1009.3 |
| 20260904180013 | 22 | 209 | 3.2 | 14.5 | 0.00 | 0.03 | 0.03 | 70 | 1009.6 |
| 20260904174515 | 22 | 348 | 3.2 | 12.9 | 0.00 | 0.03 | 0.03 | 67 | 1009.8 |
| 20260904173014 | 23 | 312 | 6.4 | 20.9 | 0.00 | 0.03 | 0.03 | 65 | 1009.4 |
| 20260904171512 | 23 | 302 | 0.0 | 11.3 | 0.00 | 0.03 | 0.03 | 67 | 1009.3 |
| 20260904170010 | 22 | 360 | 3.2 | 16.1 | 0.00 | 0.03 | 0.03 | 68 | 1009.6 |
| 20260904164508 | 23 | 315 | 0.0 | 14.5 | 0.00 | 0.03 | 0.03 | 67 | 1009.4 |
| 20260904163015 | 22 | 327 | 0.0 | 19.3 | 0.00 | 0.03 | 0.03 | 67 | 1009.7 |
| 20260904161507 | 22 | 315 | 9.7 | 19.3 | 0.00 | 0.03 | 0.03 | 66 | 1009.8 |
| 20260904160008 | 22 | 306 | 8.0 | 20.9 | 0.00 | 0.03 | 0.03 | 68 | 1010.0 |
| 20260904154502 | 22 | 298 | 1.6 | 19.3 | 0.00 | 0.03 | 0.03 | 67 | 1010.1 |
| 20260904153001 | 22 | 35 | 0.0 | 17.7 | 0.00 | 0.03 | 0.03 | 69 | 1010.1 |
| 20260904151558 | 22 | 284 | 3.2 | 12.9 | 0.00 | 0.03 | 0.03 | 74 | 1010.2 |
| 20260904150056 | 22 | 329 | 0.0 | 8.0 | 0.00 | 0.03 | 0.03 | 76 | 1010.3 |
| 20260904144554 | 21 | 278 | 0.0 | 14.5 | 0.00 | 0.03 | 0.03 | 74 | 1010.2 |
| 20260904143050 | 21 | 292 | 0.0 | 11.3 | 0.00 | 0.03 | 0.03 | 79 | 1010.2 |
| 20260904141553 | 21 | 332 | 0.0 | 0.0 | 0.00 | 0.03 | 0.03 | 84 | 1010.2 |
| 20260904140042 | 18 | 302 | 0.0 | 0.0 | 0.00 | 0.03 | 0.03 | 87 | 1010.3 |
| 20260904134559 | 17 | 250 | 0.0 | 0.0 | 0.00 | 0.03 | 0.03 | 86 | 1010.3 |
| 20260904133036 | 17 | 190 | 0.0 | 0.0 | 0.00 | 0.03 | 0.03 | 86 | 1010.3 |
| 20260904131532 | 16 | 190 | 0.0 | 0.0 | 0.00 | 0.03 | 0.03 | 86 | 1010.3 |
| 20260904130030 | 15 | 190 | 0.0 | 4.8 | 0.00 | 0.03 | 0.03 | 86 | 1010.5 |
| 20260904124523 | 15 | 304 | 0.0 | 0.0 | 0.00 | 0.05 | 0.03 | 87 | 1010.6 |
| 20260904123020 | 15 | 319 | 0.0 | 4.8 | 0.00 | 0.05 | 0.03 | 87 | 1010.6 |
| 20260904121518 | 13 | 38 | 0.0 | 4.8 | 0.00 | 0.05 | 0.03 | 87 | 1010.6 |
| 20260904120020 | 13 | 20 | 0.0 | 0.0 | 0.00 | 0.05 | 0.03 | 87 | 1010.4 |
| 20260904114514 | 12 | 21 | 0.0 | 0.0 | 0.00 | 0.05 | 0.03 | 87 | 1010.5 |
| 20260904113011 | 12 | 22 | 0.0 | 0.0 | 0.00 | 0.05 | 0.03 | 87 | 1010.4 |
| 20260904111508 | 12 | 22 | 0.0 | 0.0 | 0.03 | 0.05 | 0.03 | 87 | 1010.1 |
| 20260904110007 | 12 | 22 | 0.0 | 0.0 | 0.03 | 0.05 | 0.03 | 87 | 1010.0 |
| 20260904104507 | 12 | 22 | 0.0 | 0.0 | 0.03 | 0.05 | 0.03 | 87 | 1009.8 |
| 20260904103004 | 11 | 22 | 0.0 | 0.0 | 0.03 | 0.05 | 0.03 | 88 | 1009.8 |
| 20260904101504 | 11 | 23 | 0.0 | 0.0 | 0.00 | 0.03 | 0.00 | 88 | 1009.8 |
| 20260904100004 | 12 | 23 | 0.0 | 0.0 | 0.00 | 0.03 | 0.00 | 87 | 1009.7 |
| 20260904094503 | 12 | 23 | 0.0 | 0.0 | 0.00 | 0.03 | 0.00 | 87 | 1009.4 |
| 20260904093002 | 12 | 24 | 0.0 | 0.0 | 0.00 | 0.03 | 0.00 | 88 | 1009.4 |